RH
101 94 87 85 84 84 82 80 84 85 81 72 60 53 49 45 41 38 39 49 61 72 77 80 85 95 101 100 98 95 89 84 79 75 74 75 75 77 75 66 64 64
102 98 91 90 90 87 84 81 83 86 86 83 72 63 57 54 51 47 42 43 50 59 67 71 74 80 91 99 100 100 98 95 90 85 80 77 76 77 77 72 67 66
102 100 95 95 96 92 87 82 80 79 79 82 78 70 63 58 54 52 51 50 52 58 63 67 68 70 78 90 98 100 100 99 98 97 93 87 82 79 76 76 73 70
101 100 97 98 98 96 92 87 83 80 77 78 79 75 68 61 54 51 52 53 53 55 58 62 65 67 71 78 87 93 97 99 99 100 100 97 91 86 82 82 79 74
101 101 98 98 99 98 96 92 89 86 82 77 75 74 72 67 60 52 49 48 47 47 47 49 52 56 60 62 67 74 81 90 96 98 101 101 97 92 88 87 85 80
99 101 100 99 100 101 99 96 93 89 86 82 77 74 71 69 66 61 54 48 45 43 40 39 39 42 45 47 48 52 56 64 74 84 93 99 101 97 92 88 86 84
100 99 101 100 99 101 101 99 96 92 88 84 81 78 75 71 67 65 63 56 49 44 40 37 35 34 36 39 40 40 42 43 46 53 66 81 94 100 98 92 87 85
101 99 100 101 100 100 100 100 99 98 95 89 84 80 79 76 72 68 67 63 58 53 48 43 40 37 37 39 40 40 41 40 39 38 40 48 64 81 94 97 94 91
100 100 100 100 100 100 100 100 100 100 100 97 92 87 82 78 77 74 72 69 67 63 58 53 48 45 44 44 43 43 42 41 41 40 37 34 36 46 62 80 92 97
100 100 99 99 100 101 101 101 100 100 100 100 99 97 92 84 79 79 77 74 71 68 64 59 53 48 45 43 43 42 41 41 39 39 39 38 34 30 32 43 61 80
101 99 99 100 99 99 100 100 100 100 100 101 100 100 99 90 81 79 77 72 68 64 60 56 52 49 44 40 39 38 38 39 40 39 39 39 38 34 28 25 31 46
97 97 96 97 95 94 94 94 94 94 95 99 101 100 101 95 85 79 74 67 61 56 51 48 46 44 42 39 38 39 39 40 43 45 44 42 41 38 32 26 22 26
89 91 93 92 92 93 92 88 85 83 85 92 98 99 101 99 91 84 79 69 59 51 44 40 38 36 35 34 35 39 43 47 49 49 48 45 43 40 37 31 25 23
90 89 88 87 88 90 90 88 85 81 77 81 90 93 94 96 90 84 84 75 62 52 44 39 38 38 38 37 38 41 46 50 52 50 47 44 41 39 37 34 31 27
99 96 92 91 91 92 93 95 96 90 77 75 84 86 88 93 88 83 84 79 66 56 48 44 43 41 41 42 46 49 51 52 52 48 45 42 39 36 33 32 33 31
101 102 100 99 98 99 100 101 102 98 86 79 81 82 88 96 94 90 88 79 67 57 50 47 43 39 41 45 48 50 51 50 48 46 46 46 41 35 30 29 30 29
100 103 102 101 100 99 100 101 101 101 96 89 83 82 91 100 100 98 92 77 66 59 52 48 43 39 42 47 48 48 49 50 50 50 52 51 47 42 36 34 33 31
99 100 99 99 99 96 96 98 100 101 99 92 86 88 96 100 100 101 95 80 68 63 59 55 49 45 46 47 48 50 55 60 62 57 52 49 47 48 48 46 45 42
99 99 98 99 99 97 96 97 98 101 97 90 89 95 100 101 101 101 94 82 75 71 68 64 56 51 50 49 51 55 60 66 63 55 49 46 45 49 55 56 56 57
101 99 98 99 100 100 99 98 98 100 98 93 94 99 100 98 96 91 84 79 78 75 70 64 57 53 53 54 54 56 58 61 61 56 53 50 45 47 57 66 70 72
100 98 97 99 101 100 100 100 99 98 98 99 100 99 97 93 87 82 78 77 76 73 68 62 56 53 54 55 56 55 56 61 66 65 61 58 55 56 64 76 84 85
99 97 98 99 99 99 99 100 99 96 96 98 100 99 96 89 83 80 76 72 70 69 66 59 55 55 55 54 53 52 55 63 70 72 73 76 79 82 85 90 95 95
99 99 99 99 99 99 100 99 99 99 98 99 100 98 94 89 84 79 71 64 61 62 61 56 52 54 55 53 56 61 65 70 74 77 82 88 94 97 99 99 100 100
100 100 100 100 100 99 99 100 100 100 99 98 97 97 96 94 88 76 65 60 61 64 66 63 58 59 62 65 73 81 81 78 77 78 82 91 97 100 101 101 100 100
100 100 99 100 100 100 101 101 100 99 97 95 97 99 96 90 82 74 71 75 81 83 83 79 75 75 78 80 82 82 80 77 76 78 87 95 100 101 101 100 99 100
100 100 100 100 100 100 100 99 98 97 97 96 97 94 87 82 84 87 91 95 98 97 95 93 92 92 91 86 78 74 75 78 79 85 95 101 101 100 100 99 99 100
Wind_Speed
35 35 35 34 34 34 36 36 36 36 35 37 38 37 37 37 36 36 38 41 45 47 48 48 49 50 51 52 53 54 54 53 52 51 51 51 51 52 54 55 55 55
35 35 34 32 32 33 33 34 35 35 34 35 36 36 35 35 34 34 33 35 38 41 43 45 47 49 51 51 51 52 54 55 55 54 53 52 52 51 52 54 55 56
34 33 32 30 31 31 32 33 34 35 35 34 35 35 34 34 34 34 33 32 33 35 37 40 43 46 49 51 50 50 51 52 54 55 55 55 54 54 53 53 54 56
32 31 30 29 30 31 31 31 32 34 34 33 33 33 33 33 34 34 33 33 33 32 33 35 38 40 43 46 49 50 49 50 51 52 54 55 56 56 56 55 54 55
29 29 30 29 29 30 30 30 31 32 33 33 33 33 32 33 33 33 33 33 33 32 32 33 34 35 37 39 42 45 47 48 49 50 52 53 55 56 56 55 54 54
28 29 30 29 28 29 29 29 29 31 32 33 34 33 33 33 33 33 33 33 33 33 33 33 34 34 35 36 37 39 41 44 46 47 49 51 53 55 56 55 54 53
28 28 30 30 29 28 29 29 29 30 31 32 33 33 33 33 33 33 33 34 33 33 34 35 35 36 36 36 37 38 38 40 41 43 46 48 51 53 55 56 55 53
29 27 29 30 28 27 27 28 28 29 30 31 32 32 32 32 32 32 33 34 33 34 34 35 36 37 38 38 39 40 40 40 40 41 42 44 47 50 52 54 56 55
28 26 27 29 30 29 28 26 26 27 29 30 30 31 31 31 31 32 32 33 33 33 34 35 36 37 38 38 39 40 41 41 42 42 42 42 43 45 47 50 54 55
25 26 27 28 31 33 32 29 28 28 28 28 28 29 29 30 30 30 32 32 32 32 33 34 35 36 37 38 38 39 40 41 42 42 42 42 42 42 43 45 48 51
25 27 28 30 33 35 35 34 33 32 31 30 29 29 30 31 30 29 31 31 32 32 32 33 33 34 36 37 37 38 38 39 40 41 42 42 42 42 41 41 43 46
30 31 32 36 38 39 39 37 35 35 35 33 32 31 31 31 30 29 30 31 31 32 32 32 33 34 35 37 37 38 38 37 37 38 39 40 41 42 41 41 41 42
34 36 37 39 41 42 43 41 40 40 38 35 34 33 30 30 31 29 29 30 30 31 31 32 33 35 36 38 39 39 38 37 36 36 37 38 39 40 41 42 41 41
33 37 39 41 42 44 45 46 46 45 41 36 35 35 32 31 31 29 28 29 29 29 30 31 32 34 35 36 36 37 37 36 35 35 36 37 38 39 40 41 42 42
31 33 36 38 40 42 43 44 44 42 39 36 35 35 32 30 30 28 27 28 28 29 30 31 32 32 33 32 32 34 35 35 35 35 35 36 37 38 39 40 42 42
31 31 32 32 34 34 34 34 33 33 32 32 33 33 29 27 28 27 27 27 27 28 29 31 32 32 31 30 31 32 33 34 34 34 34 35 36 37 38 39 41 42
30 29 29 28 28 27 27 27 26 25 25 26 29 28 25 23 24 25 26 27 26 26 28 30 31 30 30 30 30 31 32 32 32 33 34 35 36 37 38 39 40 42
27 26 26 25 24 24 24 24 23 23 22 23 24 23 21 21 23 24 26 25 24 25 27 28 28 28 29 30 30 30 30 31 33 34 35 36 36 37 38 39 41 42
23 22 22 22 21 22 22 22 21 20 20 20 20 19 19 20 23 24 25 25 25 26 27 27 28 28 28 29 29 29 29 31 33 34 36 37 37 38 39 40 42 43
19 19 19 20 19 19 18 17 14 13 15 16 16 16 17 19 22 24 25 25 25 27 28 29 28 28 28 28 28 28 29 31 33 34 36 38 39 39 40 41 41 43
16 17 17 17 16 14 11 9 8 8 9 10 11 13 16 19 21 23 24 25 26 27 28 28 27 27 27 26 27 28 30 32 34 35 37 40 42 41 40 40 41 42
15 15 15 14 13 10 8 7 8 8 7 7 10 13 17 20 20 21 23 25 25 25 25 25 25 25 26 26 28 30 32 33 34 36 39 40 40 40 40 41 41 41
14 14 13 10 9 7 7 9 9 8 8 9 12 15 18 19 19 20 21 21 22 22 22 23 24 25 26 28 30 32 33 34 36 38 39 39 37 37 37 37 37 37
13 12 9 6 5 5 7 10 10 10 10 12 14 15 17 17 18 19 20 20 20 21 22 24 26 27 28 30 32 34 35 36 37 38 38 36 34 32 30 28 30 32
10 7 4 3 4 5 7 8 10 11 12 12 12 14 17 18 18 18 18 17 18 20 21 23 24 26 27 30 32 33 34 35 36 36 35 32 28 25 24 24 26 28
6 3 2 3 5 6 6 7 9 10 11 11 11 14 17 16 14 14 16 17 19 21 21 21 23 25 25 26 27 28 29 32 33 33 31 27 23 21 22 24 25 27
Wind_Direction
291 289 285 282 279 277 277 278 277 278 278 277 276 273 271 269 266 264 261 259 257 255 253 252 251 252 253 253 252 253 254 254 253 253 251 249 247 245 246 247 247 247
290 288 285 282 279 277 277 278 277 277 277 278 278 276 273 270 268 267 264 261 259 257 255 253 251 251 251 251 250 250 251 251 252 253 253 252 251 249 247 247 247 247
289 287 285 282 281 279 278 277 276 277 277 277 278 277 275 272 270 269 266 263 260 257 255 253 252 251 251 251 250 249 249 248 249 250 251 252 252 251 250 248 247 246
291 288 283 280 281 281 279 278 276 277 277 276 275 275 274 273 271 270 268 266 264 260 256 254 252 251 251 251 251 251 250 249 248 248 249 250 251 251 250 248 246 245
294 290 285 280 281 282 281 279 276 275 276 276 275 273 272 272 270 269 267 266 265 263 261 258 256 254 252 252 252 253 253 252 251 249 248 249 249 249 249 247 245 244
291 289 287 282 281 282 282 281 277 275 274 275 276 275 273 271 269 268 267 265 264 263 262 261 260 258 257 256 255 254 254 254 253 253 251 248 248 247 247 246 245 243
286 286 288 285 282 282 283 282 280 278 275 274 274 274 274 272 270 268 268 267 265 263 262 262 261 260 259 259 259 257 257 257 256 256 254 251 248 247 245 245 245 244
286 285 288 287 282 278 278 282 284 283 279 276 273 272 272 271 271 269 267 267 267 266 264 263 261 261 260 260 260 260 259 259 259 259 259 256 253 250 247 245 244 243
288 287 286 286 283 277 272 273 279 282 281 280 278 275 272 270 269 268 266 265 265 265 265 264 263 262 261 260 260 260 260 260 260 260 260 260 259 256 252 248 245 243
282 284 283 280 280 278 273 268 267 270 273 277 277 276 273 270 267 267 266 264 263 262 263 264 264 263 263 262 260 259 260 260 259 259 259 259 260 260 259 255 251 247
271 273 271 266 266 270 272 273 272 271 270 271 271 270 270 269 267 265 264 263 263 262 262 263 264 265 265 264 263 262 261 260 260 259 259 258 258 258 259 259 256 253
264 263 261 260 261 265 270 273 276 277 274 271 270 269 268 268 267 265 264 263 263 263 263 264 266 267 267 267 267 266 265 263 261 260 259 258 257 256 256 256 256 256
269 265 264 263 264 267 270 272 275 278 274 270 269 268 266 266 265 264 265 265 265 264 264 264 264 265 265 265 266 266 267 266 263 261 259 258 257 256 255 255 254 254
280 272 270 270 271 271 272 274 277 278 272 266 266 265 262 263 264 264 266 268 269 268 267 265 263 262 262 262 262 262 263 264 263 261 260 258 258 256 256 256 255 253
293 284 279 277 277 276 277 278 279 278 272 264 261 261 260 259 259 261 264 267 268 269 269 268 267 265 265 264 262 260 260 261 261 261 261 260 259 257 256 256 256 254
298 292 286 283 282 281 281 281 280 277 272 263 256 257 257 255 255 258 260 262 264 266 267 267 268 269 269 268 264 261 259 259 259 259 261 261 261 260 258 256 256 255
299 294 289 287 287 286 285 284 280 275 268 256 252 254 255 253 254 256 258 259 261 263 263 265 267 268 268 266 262 260 259 259 260 260 260 260 260 260 259 257 256 255
300 295 291 289 287 288 287 285 281 274 261 247 245 251 253 252 253 256 259 260 262 265 267 268 268 266 263 260 259 259 260 262 264 264 264 263 262 261 259 257 255 254
301 296 292 288 287 289 288 285 281 271 257 246 243 248 253 254 254 256 261 265 269 272 273 273 271 268 264 262 260 260 262 265 266 266 267 267 265 262 260 258 255 253
300 295 290 287 288 290 288 282 275 263 252 249 249 251 254 257 257 258 263 267 271 273 274 274 273 271 268 266 265 264 264 265 265 266 268 268 267 265 260 257 255 253
299 294 290 289 292 291 280 266 257 249 245 248 255 259 260 261 263 264 267 269 271 272 274 276 276 273 270 268 267 265 264 263 264 265 266 267 267 266 263 261 260 256
305 302 297 295 294 282 255 245 255 260 257 255 260 266 269 272 272 271 270 270 272 273 274 275 273 271 269 267 265 264 263 263 264 265 266 266 267 268 268 267 264 258
319 312 301 297 297 277 243 239 254 267 266 260 262 269 274 277 275 272 272 273 274 274 272 271 269 267 266 265 264 265 265 265 266 266 266 266 267 270 271 265 257 250
325 312 299 297 303 284 253 246 257 269 268 266 270 277 279 280 280 278 279 279 279 279 277 274 272 269 267 266 265 265 266 266 265 266 267 268 270 272 269 258 245 239
329 308 288 289 303 298 279 269 271 274 273 274 279 284 286 286 286 287 289 292 293 293 289 283 281 279 274 270 267 265 265 264 264 266 268 270 270 269 262 248 237 231
339 303 268 298 320 327 313 294 282 274 275 278 279 284 289 292 298 303 308 311 308 300 292 287 288 289 284 277 270 265 263 262 263 265 267 267 266 261 252 242 232 227